STARLINK-31201, 58870

Orbit data source: Space-Track

STARLINK-31201, 58870 is a payload satellite owned by SpaceX/Seattle (US) in LEO that was launched on Mon, 29 Jan 2024 UTC via an FALCON 9 launch vehicle from the Air Force Eastern Test Range (AFETR). Payload-class satellites include a variety of spacecraft equipped with specific instruments for various scientific and technological missions. These include communications satellites like Starlink; space stations such as the ISS; scientific satellites like the Hubble; Earth observation satellites from companies like Planet Labs, Umbra, and HawkEye 360; GPS; miniature CubeSats for education and research; and military/defense satellites.

Loading next visibility...
Identifier
58870, 2024-019T
Orbit
LEO
Country
Flag of USUS
Related business
Manufacturer
SpaceX/Seattle
Mission
Operational Commercial Communications
Bus & Motor
STARLINK V2M, Unknown motor
Mass
730 kg wet, ~700 kg dry
Launch date (UTC)
2024-01-29 (2 years ago)
Launch vehicle
FALCON 9
Launch site
Air Force Eastern Test Range (AFETR)
Object type
Payload
Rocket body
Debris
Shape & HBR
Box + 2 Pan, 17.7 m
Radar Cross Section
33.884 m², Large (>1 m²)

Expand to show TLE details & history
Last TLE update: 2 days ago

TLE from 2 days ago
0 STARLINK-31201
1 58870U 24019T   26171.32367868  .00001429  00000-0  61451-4 0  9991
2 58870  43.0039  28.8991 0000949 276.3315  83.7429 15.27580882134765
Epoch: 2026-06-20T07:46Z
TLE epoch observation values (Epoch: 2026-06-20T07:46:05.837Z)
Latitude
-0.00001°
Longitude
3.83482°
Altitude
482.751 km
Speed
7.626 km/s
True Right ascension
01h 55m 35s
True Declination
0° 00' 00"
Sunlit
Object was in daylight at epoch
Visualization orbit readout
Latitude
Unknown
Longitude
Unknown
Altitude
Unknown
Speed
Unknown
Apparent Right ascension
Unknown
Apparent Declination
Unknown
Sunlit
N/A
Visualization observer readout
Local Sidereal Time
21:28:08
Azimuth
Unknown
Elevation
Unknown
Doppler factor
Unknown
Orbital elements
Apogee altitude
485.642 km
Perigee altitude
484.34 km
Semi-major axis
6,863.128 km
Eccentricity
0.00009
Inclination
43.0039°
RAAN
28.8991°
Arg. of periapsis
276.3315°
True anomaly
83.75371°
Mean anomaly
83.7429°
Eccentric anomaly
83.74831°
Mean motion
3.81733 °/min
Orbital period
94.31 mins
BSTAR
0.000061451
Loading maneuver chart data...
Computing Atmospheric mass density...
Loading historical data...
Loading historical data...
Loading historical data...
Loading historical data...
Loading historical data...
Loading historical data...
Loading historical data...

Documentation

Showing up to 5 results
|